"Pseudo-MPEC" for P21JUYU

Created 2023 Sep 26 2:22:22 UT using Find_Orb

Click here for an explanation of pseudo-MPECs

 
 Astrometry: 
     P21JUYU* C2023 09 18ZBbi9Yc'\:DE)d7Astrometry\J'J[Kgu!OP5amo]U8redacted;F52
     P21JUYU  C2023 09 18P1qm8.-7-6UclickyL%P:+S'T0VDK#m.2`8CW+6?8M'N\T;,*U7]F52
     P21JUYU  C2023 09 186=herelFforM6K+]3=CKaUVwNn$Uv`[PexplanationUg40XLFOFF52

Station data:
(F52) Pan-STARRS 2, Haleakala  (N20.707382 W156.255910)  US/Hawaii.
   Observers J. Bulger, T. Dukes, T. Lowe, A. Schultz, M. Willman. Measurers
   K. Chambers, S. Chastel, T. de Boer, L. Denneau, J. Fairlamb, H.
   Flewelling, M. Huber, C.-C. Lin, E. Magnier, Y. Ramanjooloo, R. Wainscoat,
   R. Weryk. 1.8-m Ritchey-Chrétien + CCD.

Orbital elements:  P21JUYU
   Perihelion 2025 Mar 23.14190 +/- 877 TT =  3:24:19 (JD 2460757.64190)
Epoch 2023 Sep 18.0 TT = JDT 2460205.5   Ju: 0.9906              AutoNEOCP
M 326.06526965 +/- 58               (J2000 ecliptic)
n   0.06146016 +/- 0.0887           Peri.    0.94527 +/- 110
a   6.35926488 +/- 6.12             Node    67.00994 +/- 46
e   0.3648146 +/- 0.225             Incl.   29.89121 +/- 41
P  16.04                   H 14.79  G  0.15   U 11.2  SR
q 4.03931186 +/- 1.99    Q 8.67921791 +/- 70.8
From 3 observations 2023 Sept. 18 (29.6 min); mean residual 0".04
Residuals in arcseconds: 
230918 F52  .04-  .01+    230918 F52  .08+  .01-    230918 F52  .04-  .01+    

Ephemerides (geocentric):
Date (UTC) HH   RA             Dec           delta  r     elong  mag " sig PA
---- --------  ------------   ------------  ------ ------ -----  --- --------
2023 09 26 02  01 11 41.491   -29 27 54.38  3.9813 4.8459 146.1 21.7 681' 115
2023 09 26 03  01 11 40.048   -29 28 00.28  3.9812 4.8458 146.1 21.7 729' 115
2023 09 26 04  01 11 38.605   -29 28 06.17  3.9811 4.8457 146.1 21.7 768' 115
2023 09 26 05  01 11 37.162   -29 28 12.05  3.9810 4.8456 146.1 21.7 799' 114
2023 09 26 06  01 11 35.717   -29 28 17.91  3.9809 4.8455 146.1 21.7 824' 114
2023 09 26 07  01 11 34.273   -29 28 23.76  3.9808 4.8454 146.1 21.7 844' 114
2023 09 26 08  01 11 32.827   -29 28 29.59  3.9807 4.8452 146.1 21.7 861' 113
2023 09 26 09  01 11 31.381   -29 28 35.41  3.9806 4.8451 146.1 21.7 875' 113
2023 09 26 10  01 11 29.934   -29 28 41.22  3.9805 4.8450 146.1 21.7 887' 113
2023 09 26 11  01 11 28.486   -29 28 47.01  3.9804 4.8449 146.1 21.7 897' 113
2023 09 26 12  01 11 27.038   -29 28 52.79  3.9802 4.8448 146.1 21.7 906' 113
2023 09 26 13  01 11 25.589   -29 28 58.56  3.9801 4.8447 146.1 21.7 913' 112
2023 09 26 14  01 11 24.140   -29 29 04.31  3.9800 4.8446 146.1 21.7 920' 112
2023 09 26 15  01 11 22.690   -29 29 10.05  3.9799 4.8445 146.1 21.7 925' 112
2023 09 26 16  01 11 21.239   -29 29 15.78  3.9798 4.8444 146.1 21.7 931' 112
2023 09 26 17  01 11 19.788   -29 29 21.49  3.9797 4.8443 146.1 21.7 935' 112
2023 09 26 18  01 11 18.336   -29 29 27.19  3.9796 4.8442 146.1 21.7 939' 112
2023 09 26 19  01 11 16.883   -29 29 32.88  3.9795 4.8441 146.1 21.7 943' 112
2023 09 26 20  01 11 15.430   -29 29 38.55  3.9794 4.8440 146.1 21.7 946' 112
2023 09 26 21  01 11 13.976   -29 29 44.20  3.9793 4.8439 146.1 21.7 949' 112
2023 09 26 22  01 11 12.521   -29 29 49.85  3.9792 4.8438 146.1 21.7 952' 112
2023 09 26 23  01 11 11.066   -29 29 55.48  3.9791 4.8437 146.1 21.7 955' 112
2023 09 27 00  01 11 09.610   -29 30 01.10  3.9790 4.8436 146.1 21.7 957' 112
2023 09 27 01  01 11 08.154   -29 30 06.70  3.9789 4.8435 146.1 21.7 959' 112
2023 09 27 02  01 11 06.697   -29 30 12.29  3.9788 4.8434 146.1 21.7 961' 111
2023 09 27 03  01 11 05.239   -29 30 17.86  3.9787 4.8433 146.1 21.7 963' 111
2023 09 27 04  01 11 03.781   -29 30 23.42  3.9786 4.8432 146.1 21.7 965' 111
2023 09 27 05  01 11 02.322   -29 30 28.97  3.9785 4.8431 146.1 21.7 967' 111
2023 09 27 06  01 11 00.863   -29 30 34.51  3.9784 4.8430 146.1 21.7 968' 111
2023 09 27 07  01 10 59.403   -29 30 40.03  3.9783 4.8429 146.1 21.7 970' 111
2023 09 27 08  01 10 57.942   -29 30 45.53  3.9782 4.8428 146.1 21.7 971' 111
2023 09 27 09  01 10 56.481   -29 30 51.03  3.9781 4.8427 146.1 21.7 972' 111
2023 09 27 10  01 10 55.019   -29 30 56.51  3.9780 4.8426 146.1 21.7 974' 111
2023 09 27 11  01 10 53.556   -29 31 01.97  3.9779 4.8425 146.1 21.7 975' 111
2023 09 27 12  01 10 52.093   -29 31 07.42  3.9778 4.8424 146.1 21.7 976' 111
2023 09 27 13  01 10 50.629   -29 31 12.86  3.9777 4.8423 146.1 21.7 977' 111
2023 09 27 14  01 10 49.165   -29 31 18.28  3.9776 4.8422 146.1 21.7 978' 111
2023 09 27 15  01 10 47.700   -29 31 23.69  3.9775 4.8421 146.1 21.7 979' 111
2023 09 27 16  01 10 46.234   -29 31 29.09  3.9774 4.8419 146.1 21.7 980' 111
2023 09 27 17  01 10 44.768   -29 31 34.47  3.9773 4.8418 146.1 21.7 980' 111
2023 09 27 18  01 10 43.302   -29 31 39.84  3.9772 4.8417 146.1 21.7 981' 111
2023 09 27 19  01 10 41.834   -29 31 45.19  3.9771 4.8416 146.1 21.7 982' 111
2023 09 27 20  01 10 40.366   -29 31 50.53  3.9771 4.8415 146.1 21.7 983' 111
2023 09 27 21  01 10 38.898   -29 31 55.86  3.9770 4.8414 146.1 21.7 983' 111
2023 09 27 22  01 10 37.429   -29 32 01.17  3.9769 4.8413 146.1 21.7 984' 111
2023 09 27 23  01 10 35.959   -29 32 06.47  3.9768 4.8412 146.1 21.7 985' 111
2023 09 28 00  01 10 34.489   -29 32 11.75  3.9767 4.8411 146.1 21.7 985' 111
2023 09 28 01  01 10 33.018   -29 32 17.02  3.9766 4.8410 146.1 21.7 986' 111